Погода в Таганроге

Погода в Таганроге : погода сейчас, прогноз погоды и архив. Всё, что Вы хотите узнать о погоде в Таганроге!

Хотите узнать прогноз погоды в Таганроге? Тогда Вам сюда: Погода в Таганроге

Поиск расширенной информации на нашем сайте:

Другие новости

Новости СМИ2

Главная страница сайта

Новости сайта

02.10.2013

Напоминаем, что на нашем новом сайте вы можете получить высокодетализированные прогнозы погоды по пунктам России, СНГ и мира (включающие важные для авиации метеовеличины, такие как направление и скорость ветра, видимость, явления погоды, количество и форма облачности, нижняя и верхняя граница облачности), а также ознакомиться с разнообразными материалами по авиационной метеорологии и подборкой полезных ссылок на эту тему.

Сайт Метеоцентр.Азия посвящён разработке технологий оптимизации авиаметеорологического обслуживания, включая проектирование и перспективное создание нескольких автоматизированных авиаметеорологических систем:
- система выпуска высокодетальных прогностических карт явлений погоды для нижнего воздушного пространства по России и ближнему зарубежью;
- система верификации прогнозов TAF (выпускаемых синоптиками официальных АМСГ РФ и ближнего зарубежья) и AUTOTAF (выпускаемых сайтом Метеоцентр.Азия) - выявление ошибок, онлайн-сопоставление с фактической погодой METAR, автоматическое внесение коррективов в прогнозы при резком отклонении фактической погоды от прогноза, подсчёт оправдываемости прогнозов по элементам и в целом;
- система обработки, анализа и отображения авиаметеорологической информации для применения провайдерами метеорологической информации.

Рекомендуем: комплексное бухгалтерское обслуживание ип

Погода в Таганроге - сегодня

Время (UTC), дата Ветер
(°,м/с) 
Видим.   Явления Облачность Т
(°С)
Тd
(°С)
f(%) Тe
(°С)
Pmin
(гПа)
dP
(гПа)
Po
(мм)
O2
(г/м3)
Тmin Tmax R s Состояние
почвы
21 22.03.17 350 (С) 20000 м    ясно 
+8.4 +3 69 +7  1020.2  1.1  762  298           
00 23.03.17 350 (С) 20000 м    ясно 
+5.9 +2.6 79 +6  1021  0.8  763  300           
03 23.03.17 030 (СВ) 20000 м    1/0 средняя 
[Ac trans]
+3.9 +2.4 90 +5  1021.7  0.7  763  303  +3.9         
06 23.03.17 110 (В) 10 км    9/9 1000 м 
[Sc]
+6.1 +2.8 79 +7  1023.3  1.6  764  301  +3.8         
09 23.03.17 150 (ЮВ) 20000 м    ясно 
+8.3 +2.9 69 +9  1023.6  0.4  765  299           
12 23.03.17 190 (Ю) 20000 м    ясно 
+10.4 +4.3 66 +12  1023.1  -0.4  764  296           
15 23.03.17 230 (ЮЗ) 20000 м    3/0 средняя, верхняя 
[Ac trans|Ci fib]
+10.3 +3.1 61 +10  1023.4  0.3  765  296    +11.2       
18 23.03.17 320 (СЗ) 20000 м    9/9 1000 м 
[Sc]
+10.1 +3.2 62 +10  1024.5  1.1  765  297           
21 23.03.17 180 (Ю) 20000 м    ясно 
+7.6 +4.9 83 +8  1025.4  0.8  766  300           
00 24.03.17 190 (Ю) 20000 м    ясно 
+6.6 +3.9 83 +4  1025.2  -0.2  766  301           
03 24.03.17 200 (Ю) 20000 м    9/9 1000 м 
[Sc]
+6.1 +3.3 82 +5  1025.5  0.3  766  301  +6         
06 24.03.17 210 (ЮЗ) 20000 м    9/5 1000 м средняя 
[Sc|Ac trans]
+7.6 +4.1 78 +7  1025.8  0.3  766  300  +5.9         
09 24.03.17 210 (ЮЗ) 10 км    3/0 верхняя 
[Ci fib]
+10.2 +4.5 68 +10  1025.1  -0.7  766  297           
12 24.03.17 220 (ЮЗ) 10 км    9/6 1000 м средняя 
[Sc|Ac trans]
+10.8 +5.7 71 +10  1023.1  -2  764  295           
15 24.03.17 240 (ЮЗ) 20000 м    9/5 600 м средняя, верхняя 
[Sc|Ac As|Ci fib]
+10.2 +4.8 69 +10  1021.6  -1.4  763  296    +11.7       
18 24.03.17 240 (ЮЗ) 20000 м    8/6 600 м средняя 
[Sc|Ac trans]
+8.4 +4.9 79 +8  1020.8  -0.8  763  297           
21 24.03.17 240 (ЮЗ) 20000 м    9/8 600 м средняя 
[Sc|As trans]
+8.7 +4.4 74 +8  1019.4  -1.4  762  297           
00 25.03.17 240 (ЮЗ) 4{10}  10 км    8/8 300 м 
[St]
+7.2 +5.6 90 +6  1017.6  -1.8  760  298           
03 25.03.17 250 (З) 4{10}  10 км    10/10 300 м 
[St]
+7.2 +4.9 85 +6  1015.8  -1.8  759  297  +7         
06 25.03.17 270 (З) 10 км  слаб. дождь  10/10 300 м 
[Frnb|Ns]
+7.3 +5 85 +8  1015.8  759  297  +6.9         
09 25.03.17 350 (С) 5{10}  20000 м  {дождь, морось}  8/3 600 м средняя 
[Sc diur, vesp|Ac trans]
+9.1 +1.9 61 +8  1016.4  0.6  759  296           
12 25.03.17 350 (С) 1{10}  20000 м    8/5 1000 м средняя 
[Cu hum|Ac trans]
+11.2 -1.7 41 +12  1015.7  -0.7  759  294           
15 25.03.17 340 (С) 20000 м    8/6 1000 м верхняя 
[Sc diur, vesp|Ci fib]
+9.7 -6.9 30 +9  1015.7  759  296    +11.7  0.1     
18 25.03.17 020 (С) 20000 м    8/0 средняя 
[Ac trans]
+7.6 -4.9 41 +9  1016.4  0.7  759  298           
21 25.03.17 050 (СВ) 20000 м    9/0 средняя 
[Ac trans]
+6.4 -3.5 49 +6  1016.3  -0.2  759  299           
Время (UTC), дата Ветер
(°,м/с) 
Видим.   Явления Облачность Т
(°С)
Тd
(°С)
f(%) Тe
(°С)
Pmin
(гПа)
dP
(гПа)
Po
(мм)
O2
(г/м3)
Тmin Tmax R s Состояние
почвы

Для получения пояснительной информации подведите курсор к названию столбца.

ПОГОДА в Таганроге - архив

Всё, что Вы хотите узнать о погоде в Таганроге - удобно и подробно!

Выберите нужную дату (начиная с 1 января 2015* года) и нажмите кнопку "Найти".
Будут отображены архивные сводки погоды по пункту Таганрог, начиная с указанной даты.


Отображать данные в формате CSV (для использования в таблицах Excel)


Внимание! Наш архив погоды предназначен исключительно для личного некоммерческого использования в познавательных целях. Если Вам необходимы официальные справки о состоянии погоды (для производственных, юридических, коммерческих и т.п. целей), обращайтесь в органы Росгидромета.

*Примечание: данная дата относится к архиву по метеостанциям СССР (Россия, СНГ, Балтия).
Архив по метеостанциям Зарубежной Европы и Азии (кроме Китая) хранится 10 дней, по другим регионам земного шара (Китай, Африка, Америка, Австралия, Океания) - 1 день.

Таганрог - район местоположения метеостанции


Название, широта, долгота, высота метеостанции:
Таганрог 47.2°ш. 38.9°д. 32 м над ур. моря [Российская Федерация]

Дополнительная информация

В oтличие oт бoльшинства пoгoдных сайтoв мы публикуем пoдрoбную метеoинфoрмацию в детальнoм прoфессиoнальнoм фoрмате.

Характеристики температуры и влажнoсти вoздуха измеряются на высoте 2 м в тени вдали oт зданий и деревьев.
Скoрoсть ветра измеряется на высoте 10 м (на урoвне рoста челoвека скoрoсть ветра ниже в 1.5-2 раза). Если метеoстанция нахoдится в гoрoде или в лесу, тo скoрoсть ветра занижена на 2-4 м/с пo сравнению с oткрытым местoм. Скoрoсть ветра над акватoриями крупных рек и oзёр, а также на вершинах хoлмoв на 2-5 м/с выше, чем в oбычных услoвиях.
Атмoсфернoе давление в разных тoчках местнoсти мoжет значительнo oтличаться oт давления на метеoстанции, в зависимoсти oт услoвий рельефа (при пoдъёме на 10 м давление пoнижается примернo на 1 мм рт.ст.).